User: anonymous   Login
Location: Unspecified
(0.0000°N, 0.0000°E)
Time: 22:18:40
(UTC+00:00)
Language:

ISS - Orbit

View from above orbital plane
View from above orbital plane
View from above satellite
View from above satellite

Ground track
Ground track

The orbit data is extracted from the following two-line orbital elements,

1 25544U 98067A   17116.52470442  .00016717  00000-0  10270-3 0  9023
2 25544  51.6369 295.8085 0006891  94.0665 266.1275 15.54208190 13719
Epoch (UTC): 26 April 2017 12:35:34
Eccentricity: 0.0006891
inclination: 51.6369°
perigee height: 400 km
apogee height: 409 km
right ascension of ascending node: 295.8085°
argument of perigee: 94.0665°
revolutions per day: 15.54208190
mean anomaly at epoch: 266.1275°
orbit number at epoch: 1371

The dashed part of the orbit path shows where the satellite is in the earth's shadow,  

DLR